Temperature
2 2 2 2 3 3 3 4 4 4 4 5 5 5 5 5 5 5 5 6 6 6 6 6 6 6 6 6 6 6 6 6 6 7 6 7 7 7 7 7 7 7 7
1 1 2 2 2 3 3 3 4 4 4 4 4 4 4 5 5 5 5 5 5 5 6 6 6 6 6 6 6 6 6 6 6 6 6 6 6 6 6 6 6 6 6
1 1 1 1 2 2 3 3 3 4 4 4 4 4 4 4 4 4 5 5 5 5 5 5 5 6 6 6 6 6 6 6 6 5 6 6 6 6 6 6 6 6 6
0 1 1 1 1 2 2 3 3 3 3 3 4 4 4 4 4 4 4 4 5 5 5 5 5 5 5 6 5 5 5 5 5 5 5 5 5 5 5 5 5 5 5
0 0 1 1 1 1 2 2 3 3 3 3 3 3 3 3 3 3 4 4 4 4 4 4 5 5 5 5 5 5 5 5 5 5 4 4 5 5 4 4 4 4 4
-0 0 0 1 1 1 1 2 2 2 2 2 2 3 3 3 3 3 3 3 4 4 4 4 4 4 4 5 5 5 5 4 4 4 4 4 4 4 4 4 4 4 3
-1 -0 -0 0 1 1 1 1 1 2 2 2 2 2 2 3 3 3 3 3 3 3 3 3 4 4 4 4 4 4 4 4 4 4 4 4 4 4 4 3 3 3 3
-1 -1 -1 -0 0 0 1 1 1 1 1 2 2 2 2 2 2 2 2 2 2 3 3 3 3 3 3 4 3 3 3 3 3 3 3 3 3 3 3 3 3 3 3
-1 -1 -1 -1 -0 -0 0 1 1 1 1 1 1 1 1 1 1 1 2 2 2 2 2 2 2 2 3 3 3 3 3 3 3 3 3 3 3 3 3 2 2 2 2
-2 -2 -1 -1 -1 -0 -0 0 0 0 0 1 1 1 1 1 1 1 1 1 1 1 1 1 2 2 2 2 2 2 2 2 2 2 2 2 2 2 2 2 2 2 1
-2 -2 -2 -1 -1 -1 -1 -0 -0 -0 -0 0 0 0 0 0 1 1 1 1 1 1 1 1 1 1 1 1 1 1 1 1 1 2 1 1 1 1 1 1 1 1 1
-3 -2 -2 -2 -2 -1 -1 -1 -1 -1 -1 -0 -0 -0 -0 -0 0 0 0 0 0 0 1 1 1 1 1 1 1 1 1 1 1 1 1 1 1 1 1 1 1 0 0
-3 -3 -2 -2 -2 -2 -2 -1 -1 -1 -1 -1 -1 -1 -1 -1 -1 -0 -0 -0 -0 -0 0 0 0 0 0 0 0 0 0 0 -0 -0 -0 -0 -0 0 0 0 -0 -0 -0
-4 -3 -3 -3 -2 -2 -2 -2 -2 -2 -2 -1 -1 -1 -1 -1 -1 -1 -1 -1 -1 -1 -1 -1 -1 -1 -0 -0 -0 -0 -0 -0 -0 -0 -1 -1 -1 -1 -1 -1 -1 -1 -1
-4 -4 -4 -3 -3 -3 -2 -2 -2 -2 -2 -2 -2 -2 -2 -2 -2 -1 -1 -2 -1 -1 -1 -1 -1 -1 -1 -1 -1 -1 -1 -1 -1 -1 -1 -1 -1 -1 -1 -1 -1 -1 -1
-5 -4 -4 -4 -3 -3 -3 -2 -2 -2 -2 -2 -2 -2 -2 -2 -2 -2 -2 -2 -2 -2 -2 -2 -2 -2 -2 -2 -2 -2 -2 -2 -2 -1 -2 -2 -2 -2 -2 -2 -2 -2 -2
-5 -5 -5 -4 -4 -4 -4 -3 -3 -3 -3 -3 -3 -3 -2 -2 -2 -2 -3 -3 -3 -2 -3 -3 -3 -3 -3 -3 -3 -2 -2 -2 -2 -2 -2 -2 -2 -2 -3 -3 -3 -3 -3
-5 -5 -5 -5 -5 -4 -4 -4 -4 -4 -3 -3 -3 -3 -3 -3 -3 -3 -3 -3 -3 -3 -3 -3 -3 -3 -3 -3 -3 -3 -3 -3 -3 -3 -3 -3 -3 -3 -3 -3 -3 -3 -3
-6 -6 -6 -5 -5 -5 -5 -5 -5 -4 -4 -4 -4 -4 -4 -4 -3 -4 -4 -4 -4 -4 -4 -4 -4 -4 -4 -4 -4 -4 -4 -4 -4 -4 -4 -4 -4 -4 -4 -4 -4 -4 -4
-6 -6 -6 -6 -6 -6 -6 -5 -5 -5 -5 -5 -5 -4 -4 -4 -4 -4 -4 -4 -4 -4 -4 -4 -4 -4 -4 -4 -4 -4 -4 -4 -4 -4 -4 -4 -4 -4 -4 -4 -4 -5 -5
-7 -7 -7 -7 -6 -6 -6 -6 -6 -6 -6 -6 -6 -6 -5 -5 -5 -5 -5 -5 -5 -5 -5 -5 -5 -5 -5 -5 -5 -5 -5 -5 -5 -5 -5 -5 -5 -5 -5 -5 -5 -5 -5
-8 -8 -7 -7 -7 -7 -7 -7 -7 -7 -7 -7 -6 -6 -6 -6 -6 -6 -6 -6 -6 -5 -5 -5 -5 -5 -5 -5 -5 -5 -5 -5 -5 -5 -5 -5 -5 -5 -5 -5 -5 -5 -6
-8 -8 -8 -8 -8 -8 -8 -8 -8 -8 -7 -7 -7 -7 -7 -7 -7 -7 -6 -6 -6 -6 -6 -6 -6 -6 -6 -6 -6 -6 -6 -6 -6 -6 -6 -6 -6 -6 -6 -6 -6 -6 -6
-9 -9 -9 -9 -9 -8 -8 -8 -8 -8 -8 -8 -8 -8 -7 -7 -7 -7 -7 -7 -7 -7 -7 -7 -7 -7 -7 -7 -7 -7 -7 -7 -7 -7 -6 -6 -6 -6 -6 -6 -7 -7 -7
-9 -9 -9 -9 -9 -9 -9 -9 -9 -9 -8 -8 -8 -8 -8 -8 -8 -8 -8 -8 -8 -8 -8 -7 -7 -7 -7 -7 -7 -7 -7 -7 -7 -7 -7 -7 -7 -7 -7 -7 -7 -7 -7
-10 -10 -10 -10 -10 -10 -9 -9 -9 -9 -9 -9 -9 -8 -8 -8 -8 -8 -8 -8 -8 -8 -8 -8 -8 -8 -8 -8 -8 -8 -8 -8 -8 -8 -8 -8 -8 -7 -7 -8 -8 -8 -8
Wind_Speed
5 5 5 6 6 6 6 6 7 7 7 8 8 8 8 7 7 7 7 7 7 7 6 7 7 7 5 5 4 5 5 4 5 4 3 3 4 4 3 5 5 5 6
5 5 6 5 6 6 6 6 7 7 7 8 8 8 7 7 8 8 8 8 8 8 8 7 7 6 7 6 6 6 6 6 5 5 4 4 4 4 4 3 3 4 5
5 5 5 5 6 6 6 6 6 7 7 8 8 8 8 8 8 9 9 8 8 8 8 8 8 8 8 7 7 6 5 5 5 5 5 4 3 3 3 3 3 3 4
4 4 5 5 5 6 6 6 6 6 7 7 8 8 8 8 8 8 8 8 8 8 8 8 8 8 8 8 7 7 6 6 5 5 4 4 3 3 3 3 3 3 3
5 5 5 5 4 5 5 6 6 6 7 7 7 8 8 7 7 8 8 8 8 8 7 7 8 8 7 6 6 7 7 6 6 5 5 4 4 3 4 3 4 3 3
5 5 5 4 4 4 4 5 6 6 6 6 7 8 8 7 8 9 8 8 8 8 8 8 7 8 7 7 7 7 8 8 8 7 6 6 7 5 4 4 3 3 4
5 5 5 4 4 4 4 4 5 5 5 6 6 7 7 8 8 9 9 8 8 8 9 8 6 7 8 7 8 8 9 10 10 9 9 9 8 7 6 6 6 5 5
6 6 5 5 4 4 4 3 3 3 4 5 6 6 6 7 8 8 8 8 7 8 8 8 8 8 8 7 7 7 8 9 9 9 8 8 7 6 7 6 5 4 3
6 6 6 5 5 4 4 3 3 3 3 4 4 5 6 6 8 8 7 7 6 7 7 8 8 8 8 8 8 7 7 7 8 9 8 8 8 8 7 4 4 4 4
7 7 7 5 5 5 4 3 3 3 3 2 2 4 5 6 7 8 8 6 6 6 6 7 9 8 8 9 8 8 8 7 5 5 5 5 6 7 8 7 6 6 4
7 7 6 5 5 5 4 3 2 2 2 2 2 3 3 5 7 9 9 6 6 6 6 6 6 9 9 9 8 7 8 6 5 5 4 4 3 3 4 5 5 5 5
7 6 6 5 4 3 3 3 1 1 2 2 2 2 2 3 5 7 8 8 6 6 6 5 6 8 9 8 7 7 6 5 4 4 4 3 3 3 3 3 3 3 4
6 5 5 5 4 3 2 2 1 1 1 2 2 2 2 2 3 5 6 6 6 5 4 5 6 6 7 7 8 7 6 5 4 4 4 4 3 3 2 2 1 1 1
5 5 5 4 4 3 2 2 1 1 2 2 2 2 2 2 2 3 3 4 4 4 3 4 5 5 4 4 5 5 4 4 5 5 4 3 3 3 3 3 3 2 2
5 4 4 4 4 3 2 2 2 2 2 2 2 3 3 3 3 3 3 3 4 4 3 3 3 3 3 3 3 3 4 4 4 4 3 3 3 3 3 3 3 3 3
4 4 3 3 3 2 2 3 3 2 3 3 3 2 2 2 2 3 3 3 3 5 3 3 4 4 4 4 4 4 4 4 4 4 4 4 4 4 4 3 3 4 4
4 4 3 3 2 2 2 2 2 3 3 3 2 2 2 1 2 3 3 4 4 4 3 3 3 3 4 4 4 4 4 4 3 4 4 4 4 4 4 4 4 4 4
4 3 3 3 3 2 2 2 2 2 2 3 3 3 2 1 1 1 2 3 2 2 2 2 3 3 3 3 4 3 3 3 3 4 4 4 4 4 4 4 5 5 5
3 3 3 3 3 2 2 2 2 2 2 2 2 3 3 2 1 0 2 1 2 2 2 2 2 3 3 3 3 3 3 3 3 4 4 4 4 4 4 5 4 5 5
3 4 3 2 2 2 2 2 2 2 2 2 2 3 3 2 1 1 0 1 1 2 2 2 2 2 2 2 2 2 2 3 3 3 3 4 4 4 5 5 5 5 5
3 3 3 2 2 2 2 1 1 1 1 1 2 3 3 1 1 1 1 1 1 1 1 1 1 1 1 1 2 2 3 3 3 3 3 3 3 4 4 4 5 5 5
2 2 2 2 2 2 2 2 1 1 1 1 2 2 3 2 1 1 1 2 2 2 1 1 1 1 1 2 2 2 2 3 3 3 3 3 3 3 4 4 4 4 4
2 2 2 2 1 2 2 2 1 1 1 1 2 2 2 1 1 2 2 2 2 2 2 1 1 1 2 2 2 3 3 3 3 3 3 3 3 3 3 4 5 5 5
1 1 1 2 1 1 2 2 2 2 2 2 1 2 2 1 1 2 2 2 2 2 2 2 2 2 2 2 2 3 3 4 4 4 4 4 4 3 3 4 4 5 5
1 1 2 2 1 1 2 2 2 2 2 2 2 2 2 2 2 2 2 2 2 2 2 2 2 2 2 3 3 3 4 4 5 4 3 3 3 4 4 4 4 4 4
1 2 2 2 2 2 2 2 2 2 2 2 2 2 2 2 2 2 2 1 2 2 2 2 2 3 4 3 3 4 4 5 5 5 3 3 3 3 3 3 4 4 4
Wind_Direction
248 247 247 242 243 245 235 230 221 216 215 211 207 204 202 199 198 199 201 201 203 206 206 208 209 207 205 206 205 213 217 213 225 235 236 229 222 222 225 230 235 228 227
255 253 249 246 245 241 240 237 224 216 215 211 206 203 205 205 203 203 203 204 205 206 207 208 212 208 209 209 206 216 221 215 218 227 234 229 229 227 230 232 241 237 238
257 254 252 248 244 240 242 243 231 222 215 212 207 205 207 209 208 208 207 207 208 210 209 209 212 207 213 212 208 214 219 215 216 221 230 232 235 225 230 241 247 253 252
271 267 268 258 250 247 246 245 234 224 216 212 211 208 208 209 209 210 210 209 209 212 214 214 214 213 214 211 212 214 213 210 208 214 223 229 233 222 224 230 248 254 258
288 276 273 267 260 259 250 245 229 219 218 212 210 210 207 207 208 209 211 209 209 211 214 218 219 215 218 214 217 216 210 210 209 213 222 225 224 212 221 229 243 252 262
295 287 285 279 268 261 254 246 226 216 213 210 211 209 208 209 206 207 211 211 210 210 212 215 215 213 214 213 219 220 213 210 212 214 223 225 227 231 226 224 234 252 259
292 291 290 282 276 267 253 249 234 217 212 213 216 213 213 211 202 203 208 214 213 213 212 211 214 215 214 216 216 218 220 218 217 218 224 228 229 228 227 228 234 247 258
292 292 293 287 279 274 255 247 252 239 220 216 216 215 215 213 200 202 204 214 216 217 216 215 216 219 217 212 214 221 225 223 222 224 229 234 236 229 223 229 240 257 280
297 297 294 288 283 274 261 248 245 244 234 227 215 205 207 211 200 202 201 213 216 218 218 219 218 222 210 203 209 216 225 229 224 224 231 236 233 227 220 217 216 228 260
299 297 292 285 280 275 271 262 253 243 236 198 191 199 203 209 201 202 202 209 213 214 216 219 218 220 211 204 210 213 223 230 221 220 230 233 230 223 216 219 218 223 251
303 298 296 291 283 276 278 273 254 237 215 181 186 200 205 207 198 197 202 208 209 213 217 218 216 209 212 210 216 223 226 227 226 221 221 222 227 230 232 236 235 228 234
305 303 303 299 293 283 280 280 260 224 198 184 188 200 210 209 203 195 202 218 218 215 217 218 215 202 206 210 217 214 208 211 214 214 217 222 227 232 238 244 247 255 263
311 311 309 306 300 294 282 274 260 231 208 199 196 206 211 214 209 200 206 213 219 224 218 206 204 198 202 209 204 202 203 208 206 212 220 231 236 234 233 249 258 259 308
313 314 314 310 311 306 300 277 264 252 227 215 215 218 222 214 205 195 197 202 207 213 204 184 180 177 186 196 201 209 216 215 209 213 220 224 224 228 235 238 243 241 271
313 315 316 312 312 314 311 295 276 275 268 239 225 220 212 218 222 210 200 205 208 202 185 178 187 182 189 200 205 207 208 211 213 207 207 216 223 226 237 245 247 246 248
311 314 315 315 318 323 327 332 335 308 326 309 283 258 249 245 219 205 207 204 197 180 177 191 199 201 206 210 211 212 213 215 214 213 216 220 225 228 237 243 238 237 238
308 313 316 315 320 324 325 326 332 346 348 325 316 286 266 245 204 201 196 184 181 174 189 200 209 214 214 214 214 215 220 217 209 212 220 224 228 229 231 233 231 235 241
312 313 315 316 320 322 323 323 321 325 342 351 347 335 316 300 263 217 185 166 187 192 209 211 218 223 224 219 217 217 218 218 215 215 220 226 226 224 228 231 230 233 240
324 326 324 324 328 332 339 345 346 347 346 348 1 1 352 342 337 261 173 196 205 217 225 228 229 230 230 228 224 219 217 221 223 222 223 225 226 223 227 230 232 231 240
327 337 338 338 341 346 353 355 355 356 353 356 1 354 356 15 21 354 308 273 249 252 251 247 245 240 232 228 227 224 220 222 226 230 232 232 230 227 229 231 233 235 241
328 336 344 345 347 345 347 345 343 352 354 353 352 356 3 6 353 345 345 327 301 290 289 283 279 267 253 238 231 231 232 235 234 233 235 238 238 238 239 239 239 239 241
329 334 345 347 344 346 345 339 339 346 345 340 343 353 1 3 359 348 340 333 323 315 300 295 290 275 259 248 241 240 240 242 242 238 238 243 244 244 244 243 242 243 241
329 333 340 340 338 339 339 338 338 336 329 331 339 348 353 359 354 343 337 338 341 334 319 301 296 292 276 263 250 243 245 248 248 244 240 243 246 247 246 245 243 245 244
313 317 318 320 327 329 326 327 329 325 319 322 329 330 331 333 334 335 333 336 337 328 325 316 297 293 294 286 275 265 256 254 252 242 240 241 247 250 249 248 251 250 252
295 298 300 301 304 306 310 312 313 314 311 310 312 314 315 319 326 328 331 334 333 325 326 317 304 296 291 291 282 274 274 278 274 261 243 238 242 246 249 254 255 258 259
288 284 285 287 289 292 292 295 298 302 300 299 298 298 300 304 310 314 319 320 320 316 314 311 309 303 300 297 286 279 284 287 285 279 262 244 243 244 249 255 257 258 256
Height
1469 1470 1471 1472 1473 1474 1475 1476 1478 1480 1482 1484 1486 1489 1491 1494 1497 1500 1502 1505 1508 1510 1512 1515 1517 1519 1521 1523 1525 1527 1529 1531 1531 1532 1534 1534 1535 1536 1537 1537 1538 1538 1538
1466 1467 1467 1468 1468 1469 1470 1471 1474 1475 1477 1479 1481 1483 1486 1489 1492 1494 1497 1500 1503 1505 1507 1510 1512 1515 1516 1518 1520 1522 1524 1526 1527 1527 1529 1530 1531 1532 1532 1533 1533 1534 1534
1463 1463 1463 1463 1463 1464 1465 1466 1468 1470 1472 1474 1476 1479 1481 1484 1487 1489 1492 1495 1498 1500 1503 1504 1507 1509 1511 1513 1515 1517 1519 1521 1522 1523 1524 1525 1526 1527 1528 1528 1529 1529 1529
1460 1459 1458 1458 1459 1459 1460 1461 1462 1464 1466 1469 1471 1474 1476 1479 1481 1484 1487 1490 1492 1495 1497 1499 1502 1504 1506 1508 1510 1512 1514 1515 1517 1518 1519 1520 1522 1522 1523 1523 1524 1524 1525
1456 1455 1455 1455 1455 1455 1455 1456 1457 1459 1461 1463 1466 1468 1470 1473 1475 1478 1481 1484 1486 1489 1491 1494 1496 1498 1500 1503 1505 1506 1508 1510 1511 1512 1514 1515 1516 1517 1518 1518 1519 1519 1519
1453 1452 1451 1451 1451 1451 1451 1452 1453 1454 1456 1458 1460 1462 1464 1467 1469 1472 1475 1478 1480 1483 1485 1488 1490 1493 1495 1497 1499 1501 1503 1504 1505 1507 1508 1509 1510 1512 1513 1513 1514 1514 1513
1450 1449 1449 1448 1448 1447 1448 1448 1448 1449 1451 1452 1454 1456 1458 1461 1464 1467 1470 1472 1475 1477 1480 1482 1484 1486 1489 1491 1492 1495 1496 1498 1500 1501 1502 1503 1504 1506 1507 1508 1509 1508 1508
1447 1447 1446 1445 1445 1444 1444 1443 1443 1444 1445 1446 1448 1450 1453 1455 1458 1461 1464 1467 1469 1472 1474 1476 1478 1480 1483 1485 1486 1488 1489 1491 1493 1495 1496 1497 1499 1500 1502 1503 1503 1503 1503
1445 1444 1443 1442 1441 1441 1440 1439 1439 1439 1440 1440 1441 1444 1447 1449 1452 1455 1458 1461 1463 1466 1468 1471 1473 1475 1477 1479 1481 1482 1483 1485 1487 1489 1490 1492 1493 1494 1495 1496 1497 1497 1496
1443 1441 1440 1439 1438 1437 1436 1436 1435 1435 1435 1436 1438 1440 1442 1445 1447 1450 1453 1456 1458 1460 1463 1465 1467 1469 1471 1473 1475 1476 1477 1479 1480 1482 1484 1485 1487 1488 1489 1490 1490 1491 1490
1440 1439 1438 1437 1435 1434 1433 1433 1432 1432 1433 1433 1435 1437 1439 1441 1443 1446 1448 1451 1453 1455 1457 1459 1461 1463 1466 1468 1469 1471 1472 1474 1475 1476 1478 1479 1480 1481 1482 1483 1484 1485 1485
1438 1436 1435 1434 1433 1433 1432 1431 1431 1430 1430 1431 1433 1434 1436 1438 1439 1441 1443 1446 1448 1450 1451 1453 1455 1458 1460 1462 1464 1465 1467 1469 1470 1471 1471 1472 1473 1475 1476 1477 1478 1479 1480
1435 1434 1433 1432 1432 1431 1430 1429 1428 1428 1428 1429 1430 1431 1433 1434 1435 1436 1438 1440 1442 1444 1446 1447 1450 1452 1454 1456 1458 1460 1462 1464 1464 1465 1466 1467 1468 1469 1471 1472 1472 1473 1473
1433 1432 1432 1431 1430 1429 1429 1428 1427 1427 1427 1427 1427 1428 1429 1430 1431 1433 1434 1436 1438 1439 1441 1443 1445 1447 1449 1451 1453 1454 1456 1458 1459 1460 1462 1463 1464 1464 1465 1466 1467 1467 1467
1431 1431 1430 1430 1429 1428 1427 1427 1427 1427 1427 1427 1427 1427 1428 1428 1430 1431 1431 1433 1434 1436 1437 1439 1441 1443 1444 1446 1448 1449 1451 1453 1454 1455 1457 1458 1459 1459 1460 1461 1462 1462 1462
1430 1429 1429 1428 1427 1427 1426 1426 1426 1426 1426 1426 1426 1426 1426 1427 1428 1428 1429 1430 1432 1433 1434 1435 1437 1438 1440 1441 1443 1445 1446 1448 1449 1451 1452 1453 1453 1454 1455 1456 1456 1456 1456
1429 1428 1427 1427 1426 1426 1425 1424 1424 1424 1424 1424 1424 1424 1425 1425 1426 1427 1427 1428 1429 1430 1431 1431 1433 1434 1436 1437 1439 1440 1441 1443 1444 1445 1447 1448 1448 1449 1450 1450 1450 1451 1451
1428 1427 1426 1425 1425 1425 1424 1424 1423 1423 1422 1422 1423 1423 1424 1424 1424 1425 1426 1426 1427 1427 1427 1428 1429 1431 1432 1433 1434 1435 1437 1438 1439 1440 1441 1442 1443 1443 1444 1444 1445 1445 1445
1426 1425 1425 1424 1424 1423 1423 1423 1422 1422 1422 1421 1421 1422 1422 1422 1422 1423 1424 1424 1424 1425 1425 1426 1427 1427 1428 1429 1430 1431 1433 1433 1435 1436 1436 1437 1438 1438 1438 1439 1439 1439 1439
1425 1424 1423 1423 1422 1422 1422 1422 1422 1421 1421 1420 1420 1420 1421 1420 1420 1421 1421 1422 1422 1422 1423 1423 1424 1425 1425 1425 1426 1427 1428 1429 1430 1431 1431 1432 1433 1433 1433 1433 1433 1434 1434
1423 1423 1422 1422 1421 1421 1421 1421 1421 1420 1420 1420 1420 1420 1420 1419 1419 1419 1419 1420 1420 1420 1421 1421 1421 1421 1422 1422 1423 1423 1424 1425 1425 1426 1427 1427 1428 1428 1428 1428 1429 1428 1428
1423 1422 1421 1421 1420 1420 1420 1419 1419 1419 1419 1419 1419 1419 1418 1418 1417 1417 1418 1418 1418 1418 1418 1418 1418 1418 1419 1419 1420 1420 1420 1420 1421 1422 1422 1422 1423 1423 1423 1423 1423 1423 1423
1422 1421 1421 1420 1419 1419 1419 1418 1418 1418 1418 1418 1418 1417 1417 1416 1416 1416 1416 1416 1416 1416 1416 1416 1416 1416 1416 1416 1417 1417 1417 1417 1417 1418 1418 1418 1418 1418 1418 1418 1418 1417 1417
1422 1421 1420 1419 1419 1418 1418 1417 1417 1417 1417 1417 1416 1416 1416 1415 1415 1415 1414 1414 1414 1414 1414 1413 1413 1414 1414 1414 1414 1414 1414 1414 1414 1414 1414 1414 1414 1414 1414 1413 1413 1412 1412
1420 1420 1419 1418 1418 1417 1417 1416 1416 1416 1416 1416 1415 1415 1415 1414 1414 1413 1413 1412 1412 1412 1412 1411 1411 1411 1411 1411 1411 1411 1411 1411 1411 1411 1410 1410 1410 1410 1409 1409 1408 1408 1407
1419 1418 1418 1417 1416 1416 1415 1415 1415 1414 1414 1414 1414 1414 1413 1413 1412 1412 1411 1411 1410 1410 1410 1409 1409 1409 1408 1408 1408 1408 1408 1408 1408 1407 1407 1406 1406 1405 1405 1405 1404 1404 1403